This is the latest recevied weather packets stored in our database for station/object W5CMS-13. If no packets are shown the sender has not sent any weather packets the latest 10 day(s).
| Time | Temp. | Humidity | Pressure | Rain* | Wind** | Luminosity | Snow |
|---|---|---|---|---|---|---|---|
| 1788407117 | 28.89° C | 70% | 1012.6 hPa | 0 mm | - | - | - |
| 1788406517 | 29.44° C | 69% | 1012.6 hPa | 0 mm | - | - | - |
| 1788405917 | 29.44° C | 68% | 1012.5 hPa | 0 mm | - | - | - |
| 1788405317 | 29.44° C | 67% | 1012.6 hPa | 0 mm | - | - | - |
| 1788404717 | 30° C | 67% | 1012.4 hPa | 0 mm | - | - | - |
| 1788404117 | 30° C | 66% | 1012.4 hPa | 0 mm | - | - | - |
| 1788403517 | 30° C | 66% | 1012.4 hPa | 0 mm | - | - | - |
| 1788402918 | 30.56° C | 65% | 1012.3 hPa | 0 mm | - | - | - |
| 1788402317 | 31.11° C | 64% | 1012.1 hPa | 0 mm | - | - | - |
| 1788401717 | 31.67° C | 62% | 1011.8 hPa | 0 mm | - | - | - |
| 1788401117 | 32.22° C | 60% | 1011.6 hPa | 0 mm | - | - | - |
| 1788400517 | 32.78° C | 57% | 1011.5 hPa | 0 mm | - | - | - |
| 1788399917 | 32.78° C | 56% | 1011.4 hPa | 0 mm | - | - | - |
| 1788399317 | 32.78° C | 56% | 1011.2 hPa | 0 mm | - | - | - |
| 1788398717 | 32.78° C | 55% | 1011 hPa | 0 mm | - | - | - |
| 1788398117 | 33.33° C | 55% | 1011 hPa | 0 mm | - | - | - |
| 1788397517 | 33.33° C | 56% | 1011 hPa | 0 mm | - | - | - |
| 1788396918 | 33.33° C | 56% | 1010.9 hPa | 0 mm | - | - | - |
| 1788396317 | 33.89° C | 55% | 1010.8 hPa | 0 mm | - | - | - |
| 1788395717 | 33.89° C | 56% | 1010.9 hPa | 0 mm | - | - | - |
| 1788395118 | 33.89° C | 56% | 1010.8 hPa | 0 mm | - | - | - |
| 1788394517 | 34.44° C | 56% | 1010.6 hPa | 0 mm | - | - | - |
| 1788393917 | 34.44° C | 55% | 1010.6 hPa | 0 mm | - | - | - |
| 1788393317 | 33.89° C | 56% | 1010.6 hPa | 0 mm | - | - | - |
| 1788392737 | 34.44° C | 56% | 1010.7 hPa | 0 mm | - | - | - |
* Rain latest hour (hover to see other rain measurements)
** Current wind speed in m/s (hover to see current wind gust speed)